AirNav   Everest Fuels
 
 610 users online  

PS01 Sterling Heliport
Croydon, Pennsylvania, USA

GOING TO CROYDON?


FAA INFORMATION EFFECTIVE 19 MAY 2022

Location

FAA Identifier: PS01
Lat/Long: 40-04-52.6000N 074-53-39.2000W
40-04.876667N 074-53.653333W
40.0812778,-74.8942222
(estimated)
Elevation: 24 ft. / 7 m (estimated)
From city: 1 mile SE of CROYDON, PA
Time zone: UTC -4 (UTC -5 during Standard Time)
Zip code: 19021

Heliport Operations

Heliport use: Private use. Permission required prior to landing
Activation date: 10/2006
Control tower: no
ARTCC: NEW YORK CENTER
FSS: WILLIAMSPORT FLIGHT SERVICE STATION
Attendance: MON-FRI 0800-1700
Wind indicator: yes
Segmented circle: no

Heliport Communications

WX ASOS at PNE (5 nm W): PHONE 215-677-0146
WX ASOS at VAY (9 nm S): 119.325 (609-267-1176)
WX ASOS at TTN (12 nm N): 126.775 (609-538-8690)
WX AWOS-3 at LOM (17 nm W): 118.925 (215-646-1068)
WX ASOS at DYL (18 nm NW): 118.875 (215-345-0392)

Nearby radio navigation aids

VOR radial/distance  VOR name  Freq  Var
ARDr187/10.3YARDLEY VOR/DME108.2010W
GXUr299/14.3MC GUIRE VORTAC110.6012W
RBVr258/19.7ROBBINSVILLE VORTAC113.8010W
CYNr317/26.5COYLE VORTAC113.4010W
SBJr203/30.9SOLBERG VOR/DME112.9010W
PTWr114/31.7POTTSTOWN VORTAC116.5009W
OODr045/32.7WOODSTOWN VORTAC112.8010W
VCNr016/32.8CEDAR LAKE VOR/DME115.2010W
COLr259/36.4COLTS NECK VOR/DME115.4011W
MXEr084/37.0MODENA VORTAC113.2009W

 
NDB name  Hdg/Dist  Freq  Var  ID
LAKEHURST286/25.839611WNEL -. . .-..

Heliport Services

Airframe service: MAJOR
Powerplant service: MAJOR

Runway Information

Helipad H1

Dimensions: 50 x 50 ft. / 15 x 15 m
Surface: concrete, in good condition
Traffic pattern: leftleft

Heliport Ownership and Management from official FAA records

Ownership: Privately-owned
Owner: STERLING HELICOPTER
1226 RIVER ROAD
CROYDON, PA 19021
Phone 215-271-2510
Manager: PHIL BIDDEN
1226 RIVER ROAD
CROYDON, PA 19021
Phone 215-271-2510

Additional Remarks

CALL PRIOR TO USE FOR PERMISSION, NOISE ABATEMENT PROC & PREF FLT ROUTE.
AVOID OVR FLT OF HOMES & SCHOOL 0.5 NM NE.
FOR CD CTC PHILADELPHIA APCH AT 800-354-9884.
FATO 80 FT BY 80 FT.

Instrument Procedures

There are no published instrument procedures at PS01.

Some nearby airports with instrument procedures:

KPNE - Northeast Philadelphia Airport (5 nm W)
KVAY - South Jersey Regional Airport (9 nm S)
N14 - Flying W Airport (10 nm SE)
KTTN - Trenton Mercer Airport (12 nm N)
KWRI - McGuire Field (Joint Base Mc Guire Dix Lakehurst) Airport (14 nm E)
N87 - Trenton-Robbinsville Airport (16 nm NE)
KLOM - Wings Field Airport (17 nm W)
19N - Camden County Airport (18 nm S)
KDYL - Doylestown Airport (18 nm NW)
 
Loc | Ops | Rwys | IFR | FBO | Links
Com | Nav | Svcs | Stats | Notes
Area around PS01 (Sterling Heliport)
 
Road maps at: MapQuest Bing Google
 
Aerial photo
No photo
 
Sectional chart

 
Airport distance calculator
Flying to Sterling Heliport? Find the distance to fly.

From to PS01

Sunrise and sunset
Times for 26-May-2022
 Local
(UTC-4)
 Zulu
(UTC)
Morning civil twilight05:0509:05
Sunrise05:3709:37
Sunset20:1700:17
Evening civil twilight20:4800:48

Current date and time
Zulu (UTC)  26-May-2022 10:24:46
Local (UTC-4)  26-May-2022 06:24:46
 
METAR
KPNE 
6nm W 
260954Z AUTO 06004KT 10SM BKN060 12/10 A3031 RMK AO2 SLP265 T01170100
KVAY 
9nm S 
ASOS 119.325 609-267-1176
260954Z AUTO 00000KT 10SM CLR 10/08 A3030 RMK AO2 SLP261 T01000083 $
KTTN 
13nm N 
ASOS 133.70 609-538-8690
260953Z 06004KT 10SM BKN060 11/08 A3030 RMK AO2 SLP255 T01060083
KWRI 
15nm E 
260956Z AUTO 00000KT 10SM CLR 09/09 A3030 RMK AO2 SLP260 T00940086
KLOM 
17nm W 
260955Z AUTO 07003KT 10SM SCT060 10/08 A3030 RMK AO2 T01020085
KDYL 
18nm NW 
260954Z AUTO 00000KT 10SM BKN060 12/07 A3030 RMK AO2 SLP258 T01170067
TAF
KPNE 
6nm W 
260532Z 2606/2706 12005KT P6SM SCT070 FM260800 VRB04KT P6SM OVC070 FM261200 13006KT P6SM OVC030 FM261700 15006KT P6SM OVC025 TEMPO 2619/2623 -SHRA OVC015 FM262300 14006KT 6SM BR OVC010 FM270200 16006KT 6SM BR OVC005
KTTN 
13nm N 
260532Z 2606/2706 12005KT P6SM SCT070 FM260900 VRB04KT P6SM OVC040 FM261300 15006KT P6SM OVC030 FM261900 16006KT P6SM OVC020 TEMPO 2620/2623 -SHRA OVC015 FM270200 16005KT 6SM BR OVC005
KWRI 
15nm E 
260200Z 2602/2708 10005KT 9999 SCT070 BKN250 QNH3032INS BECMG 2607/2608 11005KT 9999 OVC060 QNH3026INS BECMG 2613/2614 13008KT 9999 OVC035 QNH3014INS BECMG 2622/2623 16006KT 9999 VCSH OVC015 QNH3006INS TEMPO 2623/2703 8000 -SHRA BR BECMG 2704/2705 17006KT 6000 BR OVC008 QNH3004INS TX22/2620Z TN10/2608Z
NOTAMs
Click for the latest NOTAMs
NOTAMs are issued by the DoD/FAA and will open in a separate window not controlled by AirNav.

 

 
 

Would you like to see your business listed on this page?

 If your business provides an interesting product or service to pilots, flight crews, aircraft, or users of the Sterling Heliport, you should consider listing it here.  To start the listing process, click on the button below
 
Add a business
 

Other Pages about Sterling Heliport

Update a link
 
Copyright © AirNav, LLC. All rights reserved. Privacy Policy  Contact